Regional Weather Roundup
Issued by NWS Charleston, WV

Home | Current Version | Previous Version | Text Only | Print | Product List | Glossary Off
Versions: 1 2 3 4 5 6 7 8 9 10 11 12 13 14 15 16 17 18 19 20 21 22 23 24 25 26 27 28 29 30 31 32 33 34 35 36 37 38 39 40 41 42 43 44 45 46 47 48 49 50

000
ASUS41 KRLX 272310
RWRRLX
West Virginia Regional Weather Roundup
National Weather Service Charleston WV
700 PM EDT WED MAY 27 2015

Note: "fair" indicates few or no clouds below 12,000 feet with no
significant weather and/or obstructions to visibility.

WVZ003-280000-
Northern Panhandle of West Virginia

CITY           SKY/WX    TMP DP  RH WIND       PRES   REMARKS
WHEELING       NOT AVBL
$$

WVZ009-280000-
Northwest West Virginia

CITY           SKY/WX    TMP DP  RH WIND       PRES   REMARKS
PARKERSBURG    PTSUNNY   81  64  56 SW6       30.14R
$$

WVZ006-280000-
Western West Virginia

CITY           SKY/WX    TMP DP  RH WIND       PRES   REMARKS
HUNTINGTON     MOSUNNY   80  62  54 SW9       30.13S
$$

WVZ015-280000-
West Central West Virginia

CITY           SKY/WX    TMP DP  RH WIND       PRES   REMARKS
CHARLESTON     MOSUNNY   81  61  50 W13       30.13S
$$

WVZ022-031-280000-
North Central West Virginia

CITY           SKY/WX    TMP DP  RH WIND       PRES   REMARKS
CLARKSBURG     SUNNY     79  62  56 SW12      30.14S
MORGANTOWN     MOSUNNY   80  58  46 SW7       30.14S
$$

WVZ025-035-042-045-280000-
Southern West Virginia

CITY           SKY/WX    TMP DP  RH WIND       PRES   REMARKS
BECKLEY        SUNNY     78  56  46 W9        30.22R
LOGAN            N/A     79  63  57 VRB6      30.15R
BLUEFIELD      MOSUNNY   79  56  45 W7        30.25R
LEWISBURG      SUNNY     80  55  41 S5        30.21R
$$

WVZ047-280000-
Northern Mountains of West Virginia

CITY           SKY/WX    TMP DP  RH WIND       PRES   REMARKS
ELKINS         SUNNY     78  60  53 NW7       30.18S
$$

WVZ052-280000-
Eastern Panhandle of West Virginia

CITY           SKY/WX    TMP DP  RH WIND       PRES   REMARKS
MARTINSBURG    PTSUNNY   79  68  69 SE5       30.12S
PETERSBURG     PTSUNNY   83  58  43 NW3       30.12R
$$



USA.gov is the U.S. government's official web portal to all federal, state and local government web resources and services.